Location: ???????
(54.9567°N, 38.2836°E)
Time: 20:42:14
(UTC+00:00)

Sich 1 - Pass Details

Date: 14 April 2024
Orbit: 584 x 612 km, 82.5° (Epoch: 17 May)

Event Time Altitude Azimuth Distance (km) Brightness Sun altitude
Rises 00:14:18 0° 347° (NNW) 2,827 6.9 -16.7°
Reaches altitude 10° 00:16:30 10° 347° (NNW) 1,921 6.0 -16.5°
Maximum altitude 00:20:45 85° 259° (W) 596 2.9 -16.0°
Enters shadow 00:24:29 13° 172° (S) 1,715 5.0 -15.6°
